TimeEDT,TemperatureF,Dew PointF,Humidity,Sea Level PressureIn,VisibilityMPH,Wind Direction,Wind SpeedMPH,Gust SpeedMPH,PrecipitationIn,Events,Conditions,WindDirDegrees,DateUTC
12:15 AM,30.9,13.8,49,30.61,10.0,SSE,4.6,-,N/A,,Clear,150,2014-04-18 04:15:00
12:35 AM,30.0,14.0,51,30.61,10.0,SE,3.5,-,N/A,,Clear,140,2014-04-18 04:35:00
12:55 AM,30.4,13.8,50,30.60,10.0,SSE,5.8,-,N/A,,Clear,150,2014-04-18 04:55:00
1:15 AM,29.5,13.8,52,30.60,10.0,South,6.9,-,N/A,,Clear,170,2014-04-18 05:15:00
1:35 AM,29.7,13.8,52,30.59,10.0,SSE,4.6,-,N/A,,Clear,160,2014-04-18 05:35:00
1:55 AM,29.8,14.0,52,30.59,10.0,SSE,5.8,-,N/A,,Clear,160,2014-04-18 05:55:00
2:15 AM,29.3,14.2,53,30.59,10.0,South,6.9,-,N/A,,Clear,170,2014-04-18 06:15:00
2:35 AM,28.9,14.0,54,30.59,10.0,South,4.6,-,N/A,,Clear,170,2014-04-18 06:35:00
2:55 AM,29.3,14.0,53,30.59,10.0,SSE,4.6,-,N/A,,Clear,160,2014-04-18 06:55:00
3:15 AM,29.1,14.0,53,30.58,10.0,SE,3.5,-,N/A,,Clear,140,2014-04-18 07:15:00
3:35 AM,28.4,14.2,55,30.59,10.0,SE,3.5,-,N/A,,Clear,140,2014-04-18 07:35:00
3:55 AM,28.2,14.4,56,30.57,10.0,SSE,4.6,-,N/A,,Clear,150,2014-04-18 07:55:00
4:15 AM,28.4,14.4,56,30.57,10.0,SE,4.6,-,N/A,,Clear,140,2014-04-18 08:15:00
4:35 AM,27.5,14.7,59,30.56,10.0,SE,3.5,-,N/A,,Clear,130,2014-04-18 08:35:00
4:55 AM,28.2,14.2,56,30.56,10.0,SSE,3.5,-,N/A,,Clear,150,2014-04-18 08:55:00
5:15 AM,26.4,14.5,61,30.55,10.0,SE,3.5,-,N/A,,Clear,140,2014-04-18 09:15:00
5:35 AM,27.3,14.0,57,30.55,10.0,SSE,3.5,-,N/A,,Clear,150,2014-04-18 09:35:00
5:55 AM,27.3,14.0,57,30.54,10.0,Calm,Calm,-,N/A,,Clear,0,2014-04-18 09:55:00
6:15 AM,26.6,14.7,61,30.52,10.0,SE,3.5,-,N/A,,Clear,140,2014-04-18 10:15:00
6:35 AM,27.0,14.4,59,30.51,10.0,South,5.8,-,N/A,,Clear,170,2014-04-18 10:35:00
6:55 AM,27.3,15.3,61,30.51,10.0,Calm,Calm,-,N/A,,Clear,0,2014-04-18 10:55:00
7:15 AM,28.6,15.1,57,30.51,10.0,Calm,Calm,-,N/A,,Clear,0,2014-04-18 11:15:00
7:35 AM,30.2,15.3,54,30.50,10.0,SSW,3.5,-,N/A,,Clear,200,2014-04-18 11:35:00
7:55 AM,30.7,14.0,50,30.50,10.0,South,4.6,-,N/A,,Clear,180,2014-04-18 11:55:00
8:15 AM,31.6,14.0,48,30.50,10.0,South,6.9,-,N/A,,Clear,180,2014-04-18 12:15:00
8:35 AM,32.4,14.5,48,30.49,10.0,South,4.6,-,N/A,,Clear,180,2014-04-18 12:35:00
8:55 AM,33.4,12.4,42,30.49,10.0,SSW,5.8,-,N/A,,Clear,200,2014-04-18 12:55:00
9:15 AM,35.1,11.5,38,30.49,10.0,South,6.9,-,N/A,,Clear,170,2014-04-18 13:15:00
9:35 AM,36.7,11.5,35,30.50,10.0,SSW,5.8,-,N/A,,Clear,200,2014-04-18 13:35:00
9:55 AM,38.1,10.6,32,30.51,10.0,SSE,5.8,-,N/A,,Clear,160,2014-04-18 13:55:00
10:15 AM,40.1,10.2,29,30.49,10.0,SE,6.9,-,N/A,,Clear,140,2014-04-18 14:15:00
10:35 AM,40.5,9.7,28,30.48,10.0,SSE,8.1,-,N/A,,Clear,160,2014-04-18 14:35:00
10:55 AM,42.1,9.9,27,30.47,10.0,SSE,10.4,-,N/A,,Clear,160,2014-04-18 14:55:00
11:15 AM,43.7,7.3,23,30.45,10.0,SSE,12.7,18.4,N/A,,Clear,160,2014-04-18 15:15:00
11:35 AM,43.9,6.1,21,30.44,10.0,SSE,10.4,18.4,N/A,,Clear,160,2014-04-18 15:35:00
12:15 PM,46.8,7.7,20,30.41,10.0,South,11.5,19.6,N/A,,Clear,190,2014-04-18 16:15:00
12:35 PM,47.5,3.2,16,30.39,10.0,South,11.5,17.3,N/A,,Clear,180,2014-04-18 16:35:00
12:55 PM,47.5,5.0,18,30.37,10.0,South,11.5,16.1,N/A,,Clear,180,2014-04-18 16:55:00
1:15 PM,47.8,7.2,19,30.36,10.0,South,8.1,-,N/A,,Clear,170,2014-04-18 17:15:00
1:35 PM,49.6,8.6,19,30.35,10.0,South,8.1,-,N/A,,Clear,180,2014-04-18 17:35:00
1:55 PM,50.5,7.7,18,30.34,10.0,SSW,10.4,18.4,N/A,,Clear,210,2014-04-18 17:55:00
2:15 PM,50.2,6.3,17,30.33,10.0,South,6.9,-,N/A,,Clear,190,2014-04-18 18:15:00
2:35 PM,50.0,7.3,18,30.33,10.0,South,11.5,17.3,N/A,,Clear,180,2014-04-18 18:35:00
2:55 PM,49.3,8.8,19,30.32,10.0,South,9.2,-,N/A,,Clear,170,2014-04-18 18:55:00
3:15 PM,49.1,8.1,19,30.30,10.0,South,10.4,17.3,N/A,,Clear,180,2014-04-18 19:15:00
3:35 PM,49.1,8.6,19,30.30,10.0,SSE,12.7,21.9,N/A,,Clear,160,2014-04-18 19:35:00
3:55 PM,49.1,11.1,22,30.30,10.0,SSW,10.4,19.6,N/A,,Clear,200,2014-04-18 19:55:00
4:15 PM,48.6,14.2,25,30.29,10.0,South,11.5,-,N/A,,Clear,170,2014-04-18 20:15:00
4:35 PM,47.5,15.6,28,30.28,10.0,SSE,8.1,17.3,N/A,,Clear,160,2014-04-18 20:35:00
4:55 PM,47.5,16.3,29,30.28,10.0,South,10.4,-,N/A,,Clear,170,2014-04-18 20:55:00
5:15 PM,47.5,16.9,30,30.27,10.0,South,9.2,-,N/A,,Clear,170,2014-04-18 21:15:00
5:35 PM,46.8,17.4,31,30.23,10.0,SSE,10.4,16.1,N/A,,Clear,150,2014-04-18 21:35:00
5:55 PM,46.6,17.4,31,30.22,10.0,South,15.0,-,N/A,,Scattered Clouds,180,2014-04-18 21:55:00
6:15 PM,47.1,17.8,31,30.22,10.0,South,11.5,16.1,N/A,,Scattered Clouds,170,2014-04-18 22:15:00
6:35 PM,45.9,17.6,32,30.23,10.0,South,10.4,-,N/A,,Clear,170,2014-04-18 22:35:00
6:55 PM,44.6,18.1,35,30.21,10.0,South,11.5,-,N/A,,Clear,170,2014-04-18 22:55:00
7:15 PM,43.9,18.0,35,30.20,10.0,South,9.2,-,N/A,,Clear,180,2014-04-18 23:15:00
7:35 PM,43.7,18.9,37,30.20,10.0,South,5.8,-,N/A,,Scattered Clouds,190,2014-04-18 23:35:00
7:55 PM,42.1,19.2,40,30.20,10.0,South,6.9,-,N/A,,Scattered Clouds,180,2014-04-18 23:55:00
8:15 PM,41.7,19.4,41,30.20,10.0,South,5.8,-,N/A,,Clear,190,2014-04-19 00:15:00
8:35 PM,40.6,19.9,44,30.20,10.0,South,5.8,-,N/A,,Clear,170,2014-04-19 00:35:00
8:55 PM,40.6,20.3,44,30.21,10.0,South,5.8,-,N/A,,Clear,180,2014-04-19 00:55:00
9:15 PM,39.6,21.0,48,30.20,10.0,SSE,5.8,-,N/A,,Clear,160,2014-04-19 01:15:00
9:35 PM,39.4,20.8,47,30.20,10.0,South,4.6,-,N/A,,Clear,170,2014-04-19 01:35:00
9:55 PM,39.6,21.4,48,30.20,10.0,South,8.1,-,N/A,,Scattered Clouds,170,2014-04-19 01:55:00
10:15 PM,39.2,21.7,50,30.20,10.0,SSE,3.5,-,N/A,,Scattered Clouds,160,2014-04-19 02:15:00
10:35 PM,39.2,21.9,50,30.20,10.0,SSE,5.8,-,N/A,,Scattered Clouds,160,2014-04-19 02:35:00
10:55 PM,39.0,22.5,52,30.19,10.0,SSE,5.8,-,N/A,,Mostly Cloudy,160,2014-04-19 02:55:00
11:15 PM,38.8,22.8,53,30.19,10.0,SSE,4.6,-,N/A,,Overcast,160,2014-04-19 03:15:00
11:35 PM,38.8,22.8,53,30.18,10.0,SSE,3.5,-,N/A,,Overcast,160,2014-04-19 03:35:00
11:55 PM,38.7,23.0,53,30.18,10.0,SE,3.5,-,N/A,,Overcast,140,2014-04-19 03:55:00